This is the latest recevied weather packets stored in our database for station/object KB9PMA-1. If no packets are shown the sender has not sent any weather packets the latest 10 day(s).
| Time | Temp. | Humidity | Pressure | Rain* | Wind** | Luminosity | Snow |
|---|---|---|---|---|---|---|---|
| 1777330398 | 16.67° C | 93% | 1009.8 hPa | 0.76 mm | - | - | - |
| 1777330098 | 16.67° C | 93% | 1009.6 hPa | 0.76 mm | - | - | - |
| 1777329798 | 16.11° C | 93% | 1009.5 hPa | 1.02 mm | - | - | - |
| 1777329498 | 16.11° C | 93% | 1009.1 hPa | 1.27 mm | - | - | - |
| 1777329198 | 16.11° C | 94% | 1009.8 hPa | 1.78 mm | - | - | - |
| 1777328898 | 16.11° C | 95% | 1009.4 hPa | 2.54 mm | - | - | - |
| 1777328598 | 16.11° C | 95% | 1008.8 hPa | 3.56 mm | - | - | - |
| 1777328298 | 16.11° C | 95% | 1008.8 hPa | 4.32 mm | - | - | - |
| 1777327998 | 16.11° C | 95% | 1008.6 hPa | 5.08 mm | - | - | - |
| 1777327698 | 16.11° C | 95% | 1011.1 hPa | 5.59 mm | - | - | - |
| 1777327398 | 16.11° C | 95% | 1012.3 hPa | 6.1 mm | - | - | - |
| 1777327098 | 16.11° C | 95% | 1011.9 hPa | 6.35 mm | - | - | - |
| 1777326798 | 16.11° C | 95% | 1011.9 hPa | 6.86 mm | - | - | - |
| 1777326498 | 16.11° C | 95% | 1012.4 hPa | 7.37 mm | - | - | - |
| 1777326198 | 16.11° C | 95% | 1013.1 hPa | 8.64 mm | - | - | - |
| 1777325898 | 16.11° C | 95% | 1013.5 hPa | 10.16 mm | - | - | - |
| 1777325598 | 16.67° C | 95% | 1014.2 hPa | 10.92 mm | - | - | - |
| 1777325298 | 16.67° C | 95% | 1014.6 hPa | 10.92 mm | - | - | - |
| 1777324998 | 16.67° C | 94% | 1014.9 hPa | 10.16 mm | - | - | - |
| 1777324698 | 16.67° C | 94% | 1015.2 hPa | 10.16 mm | - | - | - |
| 1777324398 | 16.67° C | 94% | 1015.5 hPa | 9.91 mm | - | - | - |
| 1777324098 | 16.67° C | 94% | 1015.8 hPa | 9.91 mm | - | - | - |
| 1777323798 | 16.67° C | 93% | 1016.1 hPa | 9.91 mm | - | - | - |
| 1777323498 | 16.67° C | 93% | 1016 hPa | 10.16 mm | - | - | - |
| 1777323198 | 16.67° C | 93% | 1016 hPa | 9.91 mm | - | - | - |
* Rain latest hour (hover to see other rain measurements)
** Current wind speed in m/s (hover to see current wind gust speed)